Location: Toronto
(43.6667°N, 79.4167°W)
Time: 12:07:50
(UTC-04:00)

X-37B - Pass Details

Date: 24 June 2021
Orbit: 383 x 392 km, 45.0° (Epoch: 01 July)

Event Time Altitude Azimuth Distance (km) Brightness Sun altitude
Rises 23:17:22 0° 260° (W) 2,252 4.7 -17.3°
Reaches altitude 10° 23:19:26 10° 262° (W) 1,400 3.6 -17.4°
Maximum altitude 23:22:35 79° 350° (N) 393 0.6 -17.7°
Enters shadow 23:24:16 25° 74° (ENE) 819 2.1 -17.9°
